Location: Izdebno
(52.6670°N, 16.2170°E)
Time: 11:03:56
(UTC+01:00)

Transit 4A - Visible Passes

Search period start: 31 January 2023 00:00
Search period end: 10 February 2023 00:00
Orbit: 871 x 973 km, 66.8° (Epoch: 30 January)

Date Brightness Start Highest point End Pass type
(mag) Time Alt. Az. Time Alt. Az. Time Alt. Az.
31 Jan 8.0 18:18:23 10° SSW 18:23:57 49° ESE 18:27:32 22° NE visible
31 Jan 8.6 20:04:49 10° WSW 20:10:24 46° NW 20:11:04 44° NNW visible
31 Jan 10.4 21:53:40 10° WNW 21:54:37 13° WNW 21:54:37 13° WNW visible
01 Feb 7.7 18:27:19 10° SSW 18:33:04 68° SE 18:37:04 21° NE visible
01 Feb 8.9 20:14:27 10° W 20:19:50 37° NNW 20:20:36 36° NNW visible
01 Feb 10.5 22:03:28 10° NW 22:04:08 12° NW 22:04:08 12° NW visible
02 Feb 7.7 18:36:26 10° SW 18:42:15 90° SSE 18:46:31 20° NE visible
02 Feb 9.2 20:24:11 10° W 20:29:20 31° NNW 20:30:03 30° NNW visible
02 Feb 10.6 22:13:12 10° NW 22:13:34 11° NW 22:13:34 11° NW visible
03 Feb 8.0 18:45:42 10° SW 18:51:31 70° NW 18:55:53 18° NE visible
03 Feb 9.4 20:33:59 10° W 20:38:52 27° NNW 20:39:25 26° NNW visible
03 Feb 10.7 22:22:50 10° NW 22:22:57 10° NW 22:22:57 10° NW visible
04 Feb 8.4 18:55:09 10° WSW 19:00:50 54° NW 19:05:12 18° NNE visible
04 Feb 9.6 20:43:49 10° WNW 20:48:28 24° NNW 20:48:44 24° NNW visible
05 Feb 8.0 17:18:02 10° SSW 17:23:41 55° ESE 17:29:23 10° NE visible
05 Feb 8.8 19:04:42 10° WSW 19:10:14 43° NW 19:14:27 17° NNE visible
05 Feb 9.7 20:53:38 10° WNW 20:57:58 22° NNW 20:57:58 22° NNW visible
06 Feb 7.8 17:27:02 10° SSW 17:32:49 75° SE 17:38:41 10° NE visible
06 Feb 9.1 19:14:23 10° W 19:19:41 35° NNW 19:23:40 17° NNE visible
06 Feb 9.8 21:03:25 10° NW 21:07:10 21° NNW 21:07:10 21° NNW visible
07 Feb 7.9 17:36:12 10° SW 17:42:02 83° NW 17:47:56 10° NE visible
07 Feb 9.3 19:24:08 10° W 19:29:12 29° NNW 19:32:50 16° NNE visible
07 Feb 9.9 21:13:07 10° NW 21:16:20 20° NNW 21:16:20 20° NNW visible
08 Feb 8.2 17:45:32 10° SW 17:51:18 64° NW 17:57:10 10° NE visible
08 Feb 9.5 19:33:57 10° WNW 19:38:46 26° NNW 19:41:59 17° NNE visible
08 Feb 10.0 21:22:43 10° NW 21:25:29 19° NNW 21:25:29 19° NNW visible
09 Feb 8.6 17:55:01 10° WSW 18:00:39 50° NW 18:06:23 10° NE visible
09 Feb 9.6 19:43:47 10° WNW 19:48:22 23° NNW 19:51:06 17° NNE visible
09 Feb 10.0 21:32:13 10° NW 21:34:36 18° NNW 21:34:36 18° NNW visible
